TimeMDT,TemperatureF,Dew PointF,Humidity,Sea Level PressureIn,VisibilityMPH,Wind Direction,Wind SpeedMPH,Gust SpeedMPH,PrecipitationIn,Events,Conditions,WindDirDegrees,DateUTC
12:51 AM,39.9,21.9,49,29.84,10.0,NW,34.5,50.6,N/A,,Overcast,310,2012-10-18 06:51:00
1:51 AM,39.0,23.0,53,29.87,10.0,WNW,27.6,41.4,N/A,,Overcast,300,2012-10-18 07:51:00
2:51 AM,39.0,25.0,57,29.88,10.0,WNW,29.9,44.9,N/A,,Overcast,300,2012-10-18 08:51:00
3:48 AM,37.4,24.8,60,29.87,10.0,WNW,31.1,42.6,N/A,,Overcast,300,2012-10-18 09:48:00
3:51 AM,37.9,25.0,60,29.90,10.0,WNW,33.4,42.6,N/A,,Overcast,300,2012-10-18 09:51:00
4:51 AM,37.9,25.0,60,29.92,10.0,NW,31.1,43.7,N/A,,Overcast,310,2012-10-18 10:51:00
5:51 AM,37.0,26.1,65,29.96,10.0,WNW,28.8,42.6,N/A,,Overcast,300,2012-10-18 11:51:00
6:51 AM,36.0,26.1,67,29.98,10.0,WNW,29.9,39.1,N/A,,Overcast,300,2012-10-18 12:51:00
7:51 AM,35.1,26.1,70,30.02,10.0,NW,24.2,38.0,N/A,,Overcast,310,2012-10-18 13:51:00
8:51 AM,35.1,27.0,72,30.06,10.0,NW,27.6,36.8,N/A,,Overcast,310,2012-10-18 14:51:00
9:51 AM,35.1,27.0,72,30.07,10.0,NW,21.9,35.7,N/A,,Overcast,310,2012-10-18 15:51:00
10:51 AM,36.0,27.0,70,30.09,10.0,NW,27.6,39.1,N/A,,Overcast,310,2012-10-18 16:51:00
11:51 AM,37.9,28.0,68,30.09,10.0,NW,27.6,34.5,N/A,,Overcast,310,2012-10-18 17:51:00
12:51 PM,42.1,28.0,58,30.08,10.0,NW,29.9,35.7,N/A,,Mostly Cloudy,320,2012-10-18 18:51:00
1:31 PM,44.6,28.4,53,30.04,10.0,NW,27.6,35.7,N/A,,Mostly Cloudy,320,2012-10-18 19:31:00
1:51 PM,45.0,28.0,52,30.08,10.0,NNW,26.5,35.7,N/A,,Mostly Cloudy,330,2012-10-18 19:51:00
2:51 PM,46.9,27.0,46,30.07,10.0,NW,26.5,38.0,N/A,,Scattered Clouds,320,2012-10-18 20:51:00
4:51 PM,46.9,26.1,44,30.08,10.0,NNW,20.7,32.2,N/A,,Clear,330,2012-10-18 22:51:00
5:51 PM,44.1,27.0,51,30.10,10.0,NW,16.1,24.2,N/A,,Clear,310,2012-10-18 23:51:00
6:51 PM,41.0,26.1,55,30.11,10.0,NW,13.8,-,N/A,,Clear,320,2012-10-19 00:51:00
7:51 PM,36.0,25.0,64,30.12,10.0,WNW,11.5,-,N/A,,Clear,290,2012-10-19 01:51:00
8:51 PM,34.0,25.0,70,30.13,10.0,West,10.4,-,N/A,,Clear,280,2012-10-19 02:51:00
9:51 PM,32.0,23.0,69,30.13,10.0,WNW,6.9,-,N/A,,Clear,290,2012-10-19 03:51:00
10:51 PM,28.9,21.9,75,30.12,10.0,West,4.6,-,N/A,,Clear,270,2012-10-19 04:51:00
11:51 PM,28.9,21.0,72,30.10,10.0,West,3.5,-,N/A,,Clear,270,2012-10-19 05:51:00